FW8282 Weather Reports


Display with metric or nautical units.
time (UTC)temp
F
wind
direction
speed
MPH
gust
MPH
rain 1hr
in
rain 24hr
in
rain mn
in
humidity
%
barometer
mb
20260831231311 79 149 0.0 0.0 0.00 0.25 0.25 94 1015.1
20260831230805 79 148 0.0 0.0 0.00 0.25 0.25 94 1015.2
20260831230301 79 131 0.0 0.0 0.00 0.25 0.25 94 1015.1
20260831225800 79 141 0.0 0.0 0.00 0.25 0.25 95 1015.3
20260831225255 79 155 0.0 0.0 0.00 0.25 0.25 95 1015.1
20260831224750 79 143 0.0 0.0 0.00 0.25 0.25 96 1015.2
20260831224246 79 156 0.0 0.0 0.00 0.25 0.25 96 1015.2
20260831223740 78 160 0.0 0.0 0.00 0.25 0.25 96 1015.4
20260831223237 78 153 0.0 0.0 0.00 0.25 0.25 97 1015.6
20260831222733 78 146 0.0 0.0 0.00 0.25 0.25 97 1015.6
20260831222228 78 164 0.0 0.0 0.00 0.25 0.25 97 1015.5
20260831221724 78 159 0.0 0.0 0.00 0.25 0.25 97 1015.5
20260831221219 78 161 0.0 0.0 0.00 0.25 0.25 98 1015.5
20260831220714 77 172 0.0 0.0 0.00 0.25 0.25 98 1015.7
20260831220209 78 161 0.0 0.0 0.00 0.25 0.25 98 1015.6
20260831215704 78 141 0.0 0.0 0.00 0.25 0.25 98 1015.6
20260831215200 77 103 0.0 0.0 0.00 0.25 0.25 98 1015.7
20260831214657 77 152 0.0 0.0 0.00 0.25 0.25 98 1015.6
20260831214153 77 153 0.0 0.0 0.00 0.25 0.25 98 1015.7
20260831213649 77 93 0.0 0.0 0.00 0.25 0.25 98 1015.6
20260831213144 78 152 0.0 0.0 0.00 0.25 0.25 98 1015.3
20260831212640 77 127 0.0 1.0 0.00 0.25 0.25 98 1015.1
20260831212137 77 152 0.0 1.0 0.00 0.25 0.25 98 1015.1
20260831211635 78 126 0.0 2.0 0.00 0.25 0.25 98 1015.6
20260831211135 78 143 0.0 0.0 0.00 0.25 0.25 98 1015.4
20260831210630 79 47 0.0 2.0 0.00 0.25 0.25 98 1015.0
20260831210127 78 126 0.0 0.0 0.00 0.25 0.25 98 1015.2
20260831205625 78 141 0.0 0.0 0.05 0.25 0.25 98 1015.5
20260831205122 78 97 0.0 0.0 0.05 0.25 0.25 98 1015.4
20260831204621 78 92 0.0 0.0 0.07 0.24 0.24 97 1015.2
20260831204120 77 146 0.0 0.0 0.26 0.24 0.24 97 1015.4
20260831203615 77 128 0.0 0.0 0.54 0.23 0.23 97 1015.5
20260831203114 78 155 0.0 0.0 0.59 0.21 0.21 97 1014.8
20260831202613 79 134 0.0 0.0 0.42 0.15 0.15 96 1014.9
20260831202108 79 48 2.0 3.0 0.42 0.11 0.11 96 1015.0
20260831201606 81 97 0.0 0.0 0.35 0.08 0.08 94 1014.9
20260831201102 83 142 1.0 2.0 0.24 0.04 0.04 93 1015.1
20260831200557 84 131 2.0 5.0 0.12 0.02 0.02 90 1014.9
20260831200052 87 75 0.0 1.0 0.00 0.00 0.00 80 1015.0
20260831195548 89 160 1.0 3.0 0.00 0.00 0.00 75 1014.9
20260831195042 92 181 0.0 0.0 0.00 0.00 0.00 70 1014.8
20260831194537 91 139 0.0 0.0 0.00 0.00 0.00 69 1014.7
20260831194032 91 220 0.0 0.0 0.00 0.00 0.00 69 1014.6
20260831193527 91 169 0.0 0.0 0.00 0.00 0.00 67 1014.5
20260831193022 91 162 0.0 0.0 0.00 0.00 0.00 67 1014.4
20260831192517 92 23 0.0 0.0 0.00 0.00 0.00 68 1014.4
20260831192013 91 133 0.0 0.0 0.00 0.00 0.00 67 1014.3
20260831191509 92 220 0.0 0.0 0.00 0.00 0.00 67 1014.4
20260831191005 91 256 0.0 0.0 0.00 0.00 0.00 65 1014.5
20260831190500 91 258 0.0 0.0 0.00 0.00 0.00 68 1014.5
20260831185958 91 148 0.0 0.0 0.00 0.00 0.00 68 1014.7
20260831185454 93 195 0.0 0.0 0.00 0.00 0.00 65 1014.7
20260831184954 94 230 0.0 0.0 0.00 0.00 0.00 66 1014.6
20260831184449 95 189 0.0 0.0 0.00 0.00 0.00 62 1014.7
20260831183944 95 192 0.0 0.0 0.00 0.00 0.00 58 1015.0
20260831183444 94 176 0.0 0.0 0.00 0.00 0.00 65 1014.8
20260831182943 93 198 0.0 0.0 0.00 0.00 0.00 64 1015.3
20260831182439 94 165 0.0 0.0 0.00 0.00 0.00 61 1015.3
20260831181934 94 321 0.0 0.0 0.00 0.00 0.00 63 1015.3
20260831181430 92 271 0.0 0.0 0.00 0.00 0.00 64 1015.5
20260831180929 91 256 0.0 0.0 0.00 0.00 0.00 64 1015.3
20260831180424 92 236 0.0 0.0 0.00 0.00 0.00 64 1015.6
20260831175923 93 173 0.0 0.0 0.00 0.00 0.00 66 1015.6
20260831175420 94 85 0.0 0.0 0.00 0.00 0.00 61 1015.7
20260831174915 95 194 0.0 0.0 0.00 0.00 0.00 60 1015.7
20260831174410 94 163 0.0 0.0 0.00 0.00 0.00 62 1015.8
20260831173909 93 177 0.0 0.0 0.00 0.00 0.00 65 1016.0
20260831173403 93 261 0.0 0.0 0.00 0.00 0.00 67 1016.0
20260831172859 92 170 0.0 0.0 0.00 0.00 0.00 69 1016.0
20260831172355 93 40 0.0 0.0 0.00 0.00 0.00 63 1015.8
20260831171854 93 251 0.0 1.0 0.00 0.00 0.00 63 1016.2
20260831171351 93 148 0.0 0.0 0.00 0.00 0.00 60 1016.3
20260831170847 92 242 0.0 0.0 0.00 0.00 0.00 64 1016.5
20260831170343 93 143 0.0 0.0 0.00 0.00 0.00 64 1016.4
20260831165839 92 163 0.0 0.0 0.00 0.00 0.00 66 1016.6
20260831165335 91 100 0.0 0.0 0.00 0.00 0.00 67 1016.6
20260831164831 92 193 0.0 0.0 0.00 0.00 0.00 67 1016.8
20260831164327 91 163 0.0 0.0 0.00 0.00 0.00 66 1016.8
20260831163823 92 128 0.0 0.0 0.00 0.00 0.00 69 1016.9
20260831163318 91 131 0.0 0.0 0.00 0.00 0.00 70 1016.9
20260831162816 91 148 0.0 0.0 0.00 0.00 0.00 73 1016.9
20260831162312 91 264 0.0 0.0 0.00 0.00 0.00 72 1016.9
20260831161810 91 144 0.0 0.0 0.00 0.00 0.00 69 1016.7
20260831161307 92 149 0.0 0.0 0.00 0.00 0.00 66 1016.7
20260831160802 91 142 0.0 0.0 0.00 0.00 0.00 69 1016.8
20260831160257 91 158 0.0 0.0 0.00 0.00 0.00 71 1017.0
20260831155756 91 170 0.0 0.0 0.00 0.00 0.00 66 1016.8
20260831155252 91 134 0.0 0.0 0.00 0.00 0.00 67 1016.9
20260831154748 90 105 0.0 0.0 0.00 0.00 0.00 71 1016.9
20260831154244 90 75 0.0 0.0 0.00 0.00 0.00 73 1017.0
20260831153742 91 62 0.0 0.0 0.00 0.00 0.00 70 1016.8
20260831153238 91 228 0.0 0.0 0.00 0.00 0.00 71 1016.8
20260831152734 89 104 0.0 0.0 0.00 0.00 0.00 73 1016.7
20260831152230 90 166 0.0 0.0 0.00 0.00 0.00 74 1016.8
20260831151730 90 182 0.0 0.0 0.00 0.00 0.00 73 1016.9
20260831151229 89 128 0.0 0.0 0.00 0.00 0.00 75 1016.7
20260831150725 89 179 0.0 0.0 0.00 0.00 0.00 75 1017.1
20260831150220 89 182 0.0 0.0 0.00 0.00 0.00 75 1016.8
20260831145719 88 155 0.0 0.0 0.00 0.00 0.00 77 1016.7
20260831145216 87 210 0.0 0.0 0.00 0.00 0.00 78 1017.0
20260831144711 89 114 0.0 0.0 0.00 0.00 0.00 75 1017.1
20260831144207 89 147 0.0 0.0 0.00 0.00 0.00 77 1016.8
20260831143706 89 165 0.0 0.0 0.00 0.00 0.00 77 1016.8
20260831143202 88 172 0.0 0.0 0.00 0.00 0.00 79 1016.7
20260831142658 88 159 0.0 0.0 0.00 0.00 0.00 78 1016.8
20260831142153 86 139 0.0 0.0 0.00 0.00 0.00 81 1016.9
20260831141652 87 132 0.0 0.0 0.00 0.00 0.00 80 1016.9
20260831141147 87 101 0.0 0.0 0.00 0.00 0.00 80 1017.2
20260831140646 87 196 0.0 0.0 0.00 0.00 0.00 81 1017.1
20260831140141 87 162 0.0 0.0 0.00 0.00 0.00 80 1017.0
20260831135639 86 132 0.0 0.0 0.00 0.00 0.00 82 1016.9
20260831135135 86 150 0.0 0.0 0.00 0.00 0.00 84 1016.9
20260831134631 86 152 0.0 0.0 0.00 0.00 0.00 84 1016.8
20260831134126 85 150 0.0 0.0 0.00 0.00 0.00 85 1016.9
20260831133625 84 159 0.0 0.0 0.00 0.00 0.00 88 1017.1
20260831133120 83 167 0.0 0.0 0.00 0.00 0.00 92 1016.9
20260831132616 81 154 0.0 0.0 0.00 0.00 0.00 96 1016.9
20260831132115 80 151 0.0 0.0 0.00 0.00 0.00 98 1016.8
20260831131610 79 156 0.0 0.0 0.00 0.00 0.00 99 1016.5
20260831131107 79 147 0.0 0.0 0.00 0.00 0.00 99 1016.6
20260831130601 78 147 0.0 0.0 0.00 0.00 0.00 99 1016.7
20260831130057 78 155 0.0 0.0 0.00 0.00 0.00 99 1016.6
20260831125555 78 159 0.0 0.0 0.00 0.00 0.00 99 1016.6
20260831125051 77 163 0.0 0.0 0.00 0.00 0.00 99 1016.5
20260831124547 77 114 0.0 0.0 0.00 0.00 0.00 99 1016.6
20260831124043 77 160 0.0 0.0 0.00 0.00 0.00 99 1016.5
20260831123542 77 156 0.0 0.0 0.00 0.00 0.00 99 1016.4
20260831123036 77 157 0.0 0.0 0.00 0.00 0.00 99 1016.6
20260831122531 77 156 0.0 0.0 0.00 0.00 0.00 99 1016.5
20260831122026 77 157 0.0 0.0 0.00 0.00 0.00 99 1016.3
20260831121521 77 151 0.0 0.0 0.00 0.00 0.00 99 1016.4
20260831121017 76 150 0.0 0.0 0.00 0.00 0.00 99 1016.4
20260831120516 76 152 0.0 0.0 0.00 0.00 0.00 99 1016.4
20260831120012 76 158 0.0 0.0 0.00 0.00 0.00 99 1016.3
20260831115508 76 155 0.0 0.0 0.00 0.00 0.00 99 1016.2
20260831115003 76 152 0.0 0.0 0.00 0.00 0.00 99 1016.1
20260831114502 76 154 0.0 0.0 0.00 0.00 0.00 99 1016.0
20260831113957 76 157 0.0 0.0 0.00 0.00 0.00 99 1015.9
20260831113456 75 161 0.0 0.0 0.00 0.00 0.00 99 1015.9
20260831112952 75 168 0.0 0.0 0.00 0.00 0.00 99 1015.9
20260831112451 75 161 0.0 0.0 0.00 0.00 0.00 99 1016.0
20260831111947 75 176 0.0 0.0 0.00 0.00 0.00 99 1015.9
20260831111443 75 169 0.0 0.0 0.00 0.00 0.00 99 1015.7
20260831110938 75 172 0.0 0.0 0.00 0.00 0.00 99 1015.6
20260831110433 74 176 0.0 0.0 0.00 0.00 0.00 99 1015.2
20260831105932 74 176 0.0 0.0 0.00 0.00 0.00 99 1015.4
20260831105428 74 176 0.0 0.0 0.00 0.00 0.00 99 1015.1
20260831104923 74 169 0.0 0.0 0.00 0.00 0.00 99 1015.4
20260831104419 74 172 0.0 0.0 0.00 0.00 0.00 99 1015.4
20260831103914 74 176 0.0 0.0 0.00 0.00 0.00 99 1015.1
20260831103414 74 176 0.0 0.0 0.00 0.00 0.00 99 1015.0
20260831102909 74 176 0.0 0.0 0.00 0.00 0.00 99 1015.1
20260831102404 74 177 0.0 0.0 0.00 0.00 0.00 99 1014.8
20260831101859 74 168 0.0 0.0 0.00 0.00 0.00 99 1014.9
20260831101354 74 176 0.0 0.0 0.00 0.00 0.00 99 1015.2
20260831100850 74 176 0.0 0.0 0.00 0.00 0.00 99 1015.1
20260831100346 74 176 0.0 0.0 0.00 0.00 0.00 99 1015.0
20260831095845 74 172 0.0 0.0 0.00 0.00 0.00 99 1015.0
20260831095339 75 176 0.0 0.0 0.00 0.00 0.00 99 1014.8
20260831094835 74 170 0.0 0.0 0.00 0.00 0.00 99 1015.1
20260831094330 75 172 0.0 0.0 0.00 0.00 0.00 99 1015.0
20260831093826 75 171 0.0 0.0 0.00 0.00 0.00 99 1015.3
20260831093321 75 169 0.0 0.0 0.00 0.00 0.00 99 1015.1
20260831092818 75 169 0.0 0.0 0.00 0.00 0.00 99 1015.1
20260831092314 74 169 0.0 0.0 0.00 0.00 0.00 99 1015.1
20260831091813 74 172 0.0 0.0 0.00 0.00 0.00 99 1014.9
20260831091304 74 170 0.0 0.0 0.00 0.00 0.00 99 1015.0
20260831090759 75 172 0.0 0.0 0.00 0.00 0.00 99 1014.7
20260831090255 74 142 0.0 0.0 0.00 0.00 0.00 99 1014.9
20260831085751 74 176 0.0 0.0 0.00 0.00 0.00 99 1014.7
20260831085245 74 169 0.0 0.0 0.00 0.00 0.00 99 1014.9
20260831084740 74 168 0.0 0.0 0.00 0.00 0.00 99 1014.9
20260831084237 74 169 0.0 0.0 0.00 0.00 0.00 99 1014.7
20260831083732 74 161 0.0 0.0 0.00 0.00 0.00 99 1014.9
20260831083228 74 168 0.0 0.0 0.00 0.00 0.00 99 1014.7
20260831082726 74 168 0.0 0.0 0.00 0.00 0.00 99 1014.9
20260831082222 74 168 0.0 0.0 0.00 0.00 0.00 99 1014.7
20260831081717 74 169 0.0 0.0 0.00 0.00 0.00 99 1014.9
20260831081213 75 162 0.0 0.0 0.00 0.00 0.00 99 1014.8
20260831080708 74 170 0.0 0.0 0.00 0.00 0.00 99 1014.7
20260831080208 74 170 0.0 0.0 0.00 0.00 0.00 99 1014.8
20260831075704 74 168 0.0 0.0 0.00 0.00 0.00 99 1015.0
20260831075200 74 161 0.0 0.0 0.00 0.00 0.00 99 1014.8
20260831074659 75 148 0.0 0.0 0.00 0.00 0.00 99 1014.7
20260831074153 75 147 0.0 0.0 0.00 0.00 0.00 99 1014.9
20260831073648 75 172 0.0 0.0 0.00 0.00 0.00 99 1015.0
20260831073148 75 172 0.0 0.0 0.00 0.00 0.00 99 1015.0
20260831072643 75 161 0.0 0.0 0.00 0.00 0.00 99 1015.2
20260831072140 75 169 0.0 0.0 0.00 0.00 0.00 99 1015.2
20260831071638 75 172 0.0 0.0 0.00 0.00 0.00 99 1014.9
20260831071133 75 171 0.0 0.0 0.00 0.00 0.00 99 1015.0
20260831070633 75 169 0.0 0.0 0.00 0.00 0.00 99 1015.0
20260831070128 75 162 0.0 0.0 0.00 0.00 0.00 99 1015.0
20260831065626 75 160 0.0 0.0 0.00 0.00 0.00 99 1015.2
20260831065125 75 160 0.0 0.0 0.00 0.00 0.00 99 1015.0
20260831064620 75 169 0.0 0.0 0.00 0.00 0.00 99 1015.0
20260831064116 75 169 0.0 0.0 0.00 0.00 0.00 99 1015.0
20260831063612 75 169 0.0 0.0 0.00 0.00 0.00 99 1015.3
20260831063107 75 169 0.0 0.0 0.00 0.00 0.00 99 1015.3
20260831062606 75 169 0.0 0.0 0.00 0.00 0.00 99 1015.2
20260831062101 75 147 0.0 0.0 0.00 0.00 0.00 99 1015.2
20260831061558 75 161 0.0 0.0 0.00 0.00 0.00 99 1015.6
20260831061055 75 150 0.0 0.0 0.00 0.00 0.00 99 1015.4
20260831060550 75 120 0.0 0.0 0.00 0.00 0.00 99 1015.4
20260831060045 75 169 0.0 0.0 0.00 0.00 0.00 99 1015.6
20260831055539 75 162 0.0 0.0 0.00 0.00 0.00 99 1015.7
20260831055035 76 172 0.0 0.0 0.00 0.00 0.00 99 1015.5
20260831054534 76 170 0.0 0.0 0.00 0.00 0.00 99 1015.6
20260831054034 75 169 0.0 0.0 0.00 0.00 0.00 99 1015.7
20260831053532 75 169 0.0 0.0 0.00 0.00 0.00 99 1015.7
20260831053027 76 170 0.0 0.0 0.00 0.00 0.00 99 1015.7
20260831052526 76 165 0.0 0.0 0.00 0.00 0.00 99 1015.6
20260831052026 76 169 0.0 0.0 0.00 0.00 0.00 99 1015.8
20260831051524 76 162 0.0 0.0 0.00 0.00 0.00 99 1015.7
20260831051024 76 161 0.0 0.0 0.00 0.00 0.00 99 1015.8
20260831050523 76 162 0.0 0.0 0.00 0.00 0.00 99 1015.9
20260831050022 76 162 0.0 0.0 0.00 0.00 0.00 99 1015.9
20260831045521 76 161 0.0 0.0 0.00 0.00 0.00 99 1015.6
20260831045017 76 151 0.0 0.0 0.00 0.00 0.00 99 1016.1
20260831044512 76 155 0.0 0.0 0.00 0.00 0.00 98 1016.0
20260831044008 76 151 0.0 0.0 0.00 0.00 0.00 98 1015.8
20260831043507 76 145 0.0 0.0 0.00 0.00 0.00 98 1015.9
20260831043002 76 172 0.0 0.0 0.00 0.00 0.00 98 1015.9
20260831042457 76 165 0.0 0.0 0.00 0.00 0.00 98 1016.0
20260831041956 76 117 0.0 0.0 0.00 0.00 0.00 98 1015.6
20260831041451 76 149 0.0 0.0 0.00 0.00 0.00 98 1015.9
20260831040946 76 151 0.0 0.0 0.00 0.00 0.00 99 1016.0
20260831040441 76 140 0.0 0.0 0.00 0.00 0.00 99 1015.9
20260831035938 76 138 0.0 0.0 0.00 0.01 0.01 99 1015.9
20260831035437 76 163 0.0 0.0 0.00 0.01 0.01 99 1016.0
20260831034932 76 158 0.0 0.0 0.00 0.01 0.01 99 1016.1
20260831034428 76 165 0.0 0.0 0.00 0.01 0.01 99 1016.0
20260831033923 76 150 0.0 0.0 0.00 0.01 0.01 99 1016.1
20260831033418 76 151 0.0 0.0 0.00 0.01 0.01 99 1016.1
20260831032914 76 151 0.0 0.0 0.00 0.01 0.01 99 1016.0
20260831032408 76 127 0.0 0.0 0.00 0.01 0.01 99 1016.0
20260831031903 76 149 0.0 0.0 0.00 0.01 0.01 99 1016.2
20260831031402 76 142 0.0 0.0 0.00 0.01 0.01 99 1016.0
20260831030857 76 156 0.0 0.0 0.00 0.01 0.01 99 1016.1
20260831030355 76 150 0.0 0.0 0.00 0.01 0.01 99 1016.0
20260831025854 76 142 0.0 0.0 0.00 0.01 0.01 99 1016.0
20260831025349 76 142 0.0 0.0 0.00 0.01 0.01 99 1016.1
20260831024844 76 149 0.0 0.0 0.00 0.01 0.01 99 1016.0
20260831024344 76 124 0.0 0.0 0.00 0.01 0.01 99 1016.1
20260831023843 76 149 0.0 0.0 0.00 0.01 0.01 99 1016.2
20260831023342 76 101 0.0 0.0 0.00 0.01 0.01 99 1016.2
20260831022837 76 145 0.0 0.0 0.00 0.01 0.01 99 1016.4
20260831022336 75 127 0.0 0.0 0.00 0.01 0.01 99 1016.3
20260831021831 75 115 0.0 0.0 0.00 0.01 0.01 99 1016.4
20260831021330 75 127 0.0 0.0 0.00 0.01 0.01 99 1016.4
20260831020826 75 127 0.0 0.0 0.00 0.01 0.01 99 1016.4
20260831020321 75 127 0.0 0.0 0.00 0.01 0.01 99 1016.4
20260831015816 75 121 0.0 0.0 0.00 0.01 0.01 99 1016.5
20260831015312 75 131 0.0 0.0 0.00 0.01 0.01 99 1016.5
20260831014812 75 150 0.0 0.0 0.00 0.01 0.01 98 1016.4
20260831014306 75 141 0.0 0.0 0.00 0.01 0.01 98 1016.5
20260831013803 75 140 0.0 0.0 0.00 0.01 0.01 98 1016.6
20260831013302 75 126 0.0 0.0 0.00 0.01 0.01 98 1016.6
20260831012757 75 120 0.0 0.0 0.00 0.01 0.01 98 1016.5
20260831012253 75 124 0.0 0.0 0.00 0.01 0.01 98 1016.3
20260831011751 75 122 0.0 0.0 0.00 0.01 0.01 98 1016.5
20260831011247 75 124 0.0 0.0 0.00 0.01 0.01 98 1016.5
20260831010743 75 123 0.0 0.0 0.00 0.01 0.01 98 1016.5
20260831010237 75 123 0.0 0.0 0.00 0.01 0.01 98 1016.3
20260831005732 76 127 0.0 0.0 0.00 0.01 0.01 98 1016.2
20260831005228 76 137 0.0 0.0 0.00 0.01 0.01 98 1016.3
20260831004723 76 149 0.0 0.0 0.00 0.01 0.01 98 1016.3
20260831004220 76 124 0.0 0.0 0.00 0.01 0.01 98 1016.2
20260831003715 76 122 0.0 0.0 0.00 0.01 0.01 98 1016.2
20260831003211 76 145 0.0 0.0 0.00 0.01 0.01 97 1016.1
20260831002709 76 136 0.0 0.0 0.00 0.01 0.01 97 1016.1
20260831002204 76 198 0.0 0.0 0.00 0.01 0.01 97 1016.2
20260831001701 76 130 0.0 0.0 0.00 0.01 0.01 97 1016.0
20260831001200 76 155 0.0 0.0 0.00 0.01 0.01 97 1015.9
20260831000657 76 170 0.0 0.0 0.00 0.01 0.01 97 1015.9
20260831000152 76 149 0.0 0.0 0.00 0.01 0.01 97 1015.8
20260830235650 76 138 0.0 0.0 0.00 0.01 0.01 97 1015.8
20260830235146 77 119 0.0 0.0 0.00 0.01 0.01 97 1015.9
20260830234641 77 152 0.0 0.0 0.00 0.01 0.01 97 1015.8
20260830234137 77 164 0.0 0.0 0.00 0.01 0.01 97 1015.8
20260830233632 77 156 0.0 0.0 0.00 0.01 0.01 97 1015.7
20260830233127 77 171 0.0 0.0 0.00 0.01 0.01 96 1015.9
20260830232623 77 197 0.0 0.0 0.00 0.01 0.01 96 1015.7
20260830232119 77 172 0.0 0.0 0.00 0.01 0.01 96 1015.7
20260830231615 77 177 0.0 0.0 0.00 0.01 0.01 96 1015.9